DW6665 Weather Reports


time (UTC)temp
C
wind
direction
speed
KPH
gust
KPH
rain 1hr
cm
rain 24hr
cm
rain mn
cm
humidity
%
barometer
mb
20260504000330 25 313 8.0 14.5 0.00 0.00 0.00 41 1009.8
20260503233344 25 327 6.4 16.1 0.00 0.00 0.00 42 1010.1
20260503230325 25 330 6.4 16.1 0.00 0.00 0.00 43 1010.6
20260503223324 24 339 8.0 20.9 0.00 0.00 0.00 43 1010.9
20260503220335 23 346 9.7 20.9 0.00 0.00 0.00 46 1011.3
20260503213348 23 322 8.0 19.3 0.00 0.00 0.00 42 1011.6
20260503210330 22 308 9.7 24.1 0.00 0.00 0.00 46 1011.9
20260503203335 22 310 12.9 22.5 0.00 0.00 0.00 46 1012.2
20260503200348 22 298 11.3 22.5 0.00 0.00 0.00 45 1012.5
20260503193330 22 17 6.4 17.7 0.00 0.00 0.00 47 1012.9
20260503190350 21 344 9.7 22.5 0.00 0.00 0.00 52 1013.2
20260503183330 21 2 6.4 16.1 0.00 0.00 0.00 54 1013.5
20260503180331 20 332 8.0 17.7 0.00 0.00 0.00 56 1013.7
20260503173324 20 280 3.2 9.7 0.00 0.00 0.00 60 1013.9
20260503170327 19 314 8.0 12.9 0.00 0.00 0.00 60 1013.9
20260503150448 17 19 3.2 9.7 0.00 0.00 0.00 63 1014.2
20260503130337 13 36 1.6 3.2 0.00 0.00 0.00 74 1013.9
20260503110328 15 26 4.8 8.0 0.00 0.00 0.00 65 1014.0
20260503090335 16 41 1.6 6.4 0.00 0.00 0.00 58 1014.2
20260503080328 16 76 1.6 4.8 0.00 0.00 0.00 57 1014.1
20260503070325 17 39 3.2 8.0 0.00 0.03 0.00 52 1014.0
20260503060341 18 43 3.2 8.0 0.00 0.03 0.00 51 1013.8
20260503053326 18 24 1.6 8.0 0.00 0.03 0.00 52 1013.9
20260503050327 18 31 1.6 6.4 0.00 0.03 0.00 51 1013.7
20260503043341 18 25 3.2 6.4 0.00 0.03 0.00 51 1013.6
20260503040327 19 50 4.8 14.5 0.00 0.03 0.00 50 1013.3
20260503033331 19 6 1.6 12.9 0.00 0.03 0.00 52 1012.8
20260503030325 20 346 4.8 16.1 0.00 0.03 0.00 51 1012.6
20260503023329 20 297 6.4 19.3 0.00 0.03 0.00 50 1012.5
20260503020339 21 353 9.7 20.9 0.00 0.03 0.00 50 1012.6
20260503013324 21 360 6.4 19.3 0.00 0.03 0.00 49 1012.7
20260503010352 21 344 8.0 17.7 0.00 0.03 0.00 50 1012.8
20260503003334 21 335 8.0 25.7 0.00 0.03 0.00 52 1012.9